Home > Weather > Piešťany > Past weeks

Flag for Slovakia Weather for the Past 2 Weeks in Piešťany, Slovakia

Now
52 °F

Mostly cloudy.


Feels Like: 46 °F
Forecast: 38 / 50 °F
Wind: 18 mph from Southeast

Location: Piestany

Current Time: Feb 9, 2016 at 10:51:08 PM

Latest Report: Feb 9, 2016 at 10:00 PM


Visibility: N/A

Pressure: 29.42 "Hg

Humidity: 67%

Dew point: 41 °F

Location of PiešťanyLocation

Historic Weather in Piešťany — Graph

°F

Piešťany Temperature Yesterday

Maximum temperature yesterday: 50 °F (at 11:30 PM)
Minimum temperature yesterday: 39 °F (at 5:30 AM)
Average temperature yesterday: 45 °F

High & Low Weather Summary for the Past Weeks

 TemperatureHumidityPressure
High54 °F (Feb 9, 12:00 PM)100% (Jan 25, 9:00 PM)30.39 "Hg (Jan 25, 9:00 PM)
Low28 °F (Feb 5, 7:00 PM)49% (Jan 31, 12:30 PM)29.45 "Hg (Feb 9, 9:30 PM)
Average39 °F86%30.11 "Hg
* Reported Jan 25 9:00 PM — Feb 9 9:30 PM, Piešťany, Weather by CustomWeather, © 2016

Note: Actual official high and low records may vary slightly from our data, if they occured in-between our weather recording intervals... More about our weather records

Advertising

Piešťany Weather History for the Previous 24 Hours

 ConditionsComfort  
Time TempWeatherWind HumidityBarometerVisibility
9:30 PM
Tue, Feb 9
50 °FMostly cloudy.16 mph71%29.45 "HgN/A
9:00 PM52 °FPassing clouds.15 mph67%29.47 "HgN/A
8:30 PM52 °FPassing clouds.18 mph67%29.47 "HgN/A
8:00 PM52 °FPassing clouds.20 mph67%29.47 "HgN/A
7:30 PM52 °FPassing clouds.17 mph67%29.50 "HgN/A
7:00 PM52 °FClear.20 mph67%29.50 "Hg10 mi
6:30 PM52 °FClear.21 mph67%29.53 "Hg10 mi
6:00 PM52 °FPassing clouds.18 mph72%29.53 "HgN/A
5:30 PM52 °FPassing clouds.17 mph72%29.56 "HgN/A
5:00 PM50 °FPassing clouds.21 mph76%29.56 "HgN/A
4:30 PM52 °FPassing clouds.20 mph72%29.59 "HgN/A
4:00 PM52 °FPassing clouds.18 mph72%29.62 "HgN/A
3:30 PM54 °FPassing clouds.21 mph67%29.62 "HgN/A
3:00 PM52 °FPassing clouds.17 mph72%29.65 "HgN/A
2:30 PM54 °FPassing clouds.16 mph72%29.68 "HgN/A
2:00 PM54 °FPassing clouds.14 mph72%29.71 "HgN/A
1:30 PM52 °FPassing clouds.12 mph77%29.71 "HgN/A
1:00 PM52 °FScattered clouds.8 mph72%29.77 "HgN/A
12:30 PM54 °FPassing clouds.10 mph72%29.77 "HgN/A
12:00 PM54 °FPassing clouds.7 mph72%29.80 "HgN/A
11:00 AM48 °FSunny.6 mph82%29.83 "Hg10 mi
10:30 AM45 °FSunny.8 mph93%29.83 "Hg10 mi
10:00 AM45 °FSunny.3 mph87%29.83 "Hg10 mi
9:00 AM41 °FSunny.3 mph100%29.86 "Hg10 mi
8:30 AM41 °FSunny.1 mph93%29.86 "Hg10 mi
8:00 AM41 °FSunny.No wind93%29.86 "Hg10 mi
7:30 AM39 °FSunny.No wind100%29.86 "Hg10 mi
7:00 AM39 °FClear.5 mph100%29.86 "Hg10 mi
6:30 AM41 °FClear.5 mph93%29.86 "Hg10 mi
6:00 AM43 °FClear.3 mph93%29.86 "Hg10 mi
5:30 AM45 °FLight rain. Overcast.8 mph87%29.86 "HgN/A
5:00 AM45 °FLight rain. Mostly cloudy.7 mph81%29.86 "HgN/A
4:30 AM45 °FLight rain. Mostly cloudy.1 mph81%29.86 "HgN/A
4:00 AM43 °FMostly cloudy.5 mph81%29.83 "HgN/A
3:30 AM45 °FQuite cool.3 mph81%29.80 "HgN/A
3:00 AM45 °FPartly cloudy.2 mph81%29.80 "HgN/A
2:30 AM45 °FOvercast.3 mph87%29.80 "HgN/A
2:00 AM45 °FMostly cloudy.2 mph87%29.83 "HgN/A
1:30 AM45 °FMostly cloudy.8 mph87%29.83 "HgN/A
1:00 AM48 °FPartly cloudy.3 mph76%29.80 "HgN/A
12:30 AM48 °FPassing clouds.8 mph76%29.77 "HgN/A
12:00 AM50 °FPassing clouds.10 mph71%29.77 "HgN/A
11:30 PM
Mon, Feb 8
50 °FMostly cloudy.7 mph71%29.77 "HgN/A
11:00 PM48 °FOvercast.10 mph76%29.77 "HgN/A
10:30 PM48 °FMostly cloudy.15 mph76%29.74 "HgN/A
10:00 PM48 °FOvercast.15 mph76%29.74 "HgN/A
Weather by CustomWeather, © 2016

See weather overviewHow to use our weather pages